User: anonymous   Login
Location: Newark
(50.0306°N, 2.3272°E)
Time: 11:43:02
(UTC+00:00)
Language:

NUDT-PHONESAT - Orbit

View from above orbital plane
View from above orbital plane
View from above satellite
View from above satellite

Ground track
Ground track

The orbit data is extracted from the following two-line orbital elements,

1 40900U 15049B   20019.13947324  .00001580  00000-0  69014-4 0  9995
2 40900  97.4345  31.4270 0013429 145.2786 283.0740 15.23519058240308
Epoch (UTC): 19 January 2020 03:20:50
Eccentricity: 0.0013429
inclination: 97.4345°
perigee height: 486 km
apogee height: 504 km
right ascension of ascending node: 31.4270°
argument of perigee: 145.2786°
revolutions per day: 15.23519058
mean anomaly at epoch: 283.0740°
orbit number at epoch: 24030

The dashed part of the orbit path shows where the satellite is in the earth's shadow,  

DLR